TIME,DELAY(SENSOR),PRES,OXYGEN,RAWTEMP,T(OPTODE),TCPHASE,FLUOR,BETA(BETA700),BETA(BETA412),BETA(BETA440),CDOM,C(CSC),ED(ED412.20),ED(ED444.00),ED(ED489.60),ED(ED554.30),LU(LU412.10),LU(LU443.90),LU(LU489.70),LU(LU554.70),COMP,TILTX,TILTY,CHECK
1346123399,5810,889.6500244140625000,31.6100292205810550,558.9143066406250000,4.5195388793945310,56.8224601745605500,55,99,102,78,82,15558,0,0,0,0,2147122002,2147777014,2147571392,2147573193,3418,3,13,56568
1346126995,5809,984.2899780273438000,37.7590789794921900,563.2830200195312000,4.3841061592102050,55.8827514648437500,55,98,101,78,83,15551,0,0,0,0,2147120539,2147777444,2147575579,2147569837,542,3,13,35248
1346130595,5810,997.2800292968750000,37.6804504394531250,565.4957275390625000,4.3154468536376950,55.9185791015625000,55,99,101,79,83,15552,0,0,0,0,2147124498,2147780233,2147577307,2147572982,74,3,13,44570
1346134195,5810,1002.7299804687500000,37.6210098266601560,565.3402709960938000,4.3202710151672360,55.9299507141113300,54,98,101,79,82,15551,0,0,0,0,2147127533,2147775296,2147572873,2147571538,175,3,13,2775
1346137795,5810,1006.5300292968750000,36.8689002990722660,565.5565795898438000,4.3135590553283690,56.0433387756347660,55,97,100,78,82,15552,0,0,0,0,2147123840,2147771355,2147573485,2147572105,219,3,13,2985
1346141395,5807,1013.1699829101562000,36.7394714355468750,565.4946289062500000,4.3154830932617190,56.0627708435058600,55,99,101,79,83,15551,0,0,0,0,2147122130,2147775835,2147578285,2147569718,316,3,13,50787
1346144995,5811,1011.1599731445312000,36.6724815368652340,565.2572021484375000,4.3228511810302730,56.0744209289550800,55,100,100,77,83,15551,0,0,0,0,2147121590,2147775771,2147575158,2147569024,3429,3,13,59332
1346148595,5809,1008.0300292968750000,36.1191101074218750,565.6215820312500000,4.3115429878234860,56.1647796630859400,55,98,102,77,83,15551,0,0,0,0,2147123538,2147779602,2147575469,2147570093,604,3,13,1362
1346152195,5808,1008.3599853515625000,35.4612197875976560,566.5532836914062000,4.2826180458068850,56.2752609252929700,55,100,100,79,83,15550,0,0,0,0,2147125915,2147775414,2147573293,2147574326,3068,3,13,37825
1346155795,5812,1011.1199951171875000,36.2021408081054700,566.4904785156250000,4.2845687866210940,56.1560783386230500,55,100,101,77,83,15552,0,0,0,0,2147124992,2147775085,2147574354,2147568402,3360,3,13,50659
1346159395,5809,1012.2299804687500000,36.1127586364746100,566.6840820312500000,4.2785568237304690,56.1705017089843750,55,100,101,78,83,15551,0,0,0,0,2147128036,2147777206,2147573211,2147572900,91,3,13,9903
1346162995,5809,1010.0000000000000000,36.8126296997070300,566.7398071289062000,4.2768287658691410,56.0641784667968750,55,99,101,78,83,15548,0,0,0,0,2147126893,2147778816,2147575680,2147568941,58,3,12,9563
1346166595,5810,1014.6300048828125000,36.8279418945312500,566.6400146484375000,4.2799282073974610,56.0591888427734400,55,97,101,77,83,15548,0,0,0,0,2147121435,2147774546,2147569929,2147568685,3543,3,13,29536
1346170195,5808,1016.9400024414062000,36.3244209289550800,566.8574218750000000,4.2731781005859375,56.1395606994628900,56,98,101,78,82,15549,0,0,0,0,2147122788,2147775597,2147574153,2147574043,338,3,13,57396
1346173795,5810,1015.3599853515625000,36.3782615661621100,566.7341918945312000,4.2770018577575680,56.1337509155273440,54,99,101,77,82,15549,0,0,0,0,2147121920,2147777901,2147571529,2147573577,265,3,13,64492
1346177395,5806,1012.7999877929688000,36.5721206665039060,567.1190185546875000,4.2650551795959470,56.1064300537109400,55,98,100,77,84,15547,0,0,0,0,2147124909,2147778596,2147573632,2147576704,361,3,13,10087
1346180995,5809,1014.3499755859375000,36.4834518432617200,566.8239135742188000,4.2742180824279785,56.1161918640136700,55,97,101,77,83,15548,0,0,0,0,2147120429,2147781092,2147575414,2147573403,1791,3,13,8361
1346184595,5809,1024.8199462890625000,36.7636985778808600,566.7664184570312000,4.2760028839111330,56.0751609802246100,56,99,101,78,83,15548,0,0,0,0,2147123785,2147781952,2147572781,2147571894,2714,3,13,34079
1346188195,5809,1025.2199707031250000,36.4518394470214840,566.5269775390625000,4.2834358215332030,56.1219100952148440,55,99,100,77,82,15546,0,0,0,0,2147122642,2147771977,2147572516,2147571145,3169,3,13,41209
1346191795,5811,1026.8299560546875000,35.4040489196777340,566.3079223632812000,4.2902369499206540,56.2789993286132800,55,99,101,78,83,15548,0,0,0,0,2147124425,2147775350,2147579986,2147572059,747,3,13,20034
1346195395,5810,1026.4100341796875000,35.4170799255371100,566.2147827148438000,4.2931270599365230,56.2825202941894500,56,99,100,78,82,15548,0,0,0,0,2147122020,2147775597,2147577371,2147574345,205,3,13,57219
1346198995,5809,1028.5100097656250000,35.3496208190918000,566.2062988281250000,4.2933897972106930,56.2927703857421900,55,98,100,78,82,15546,0,0,0,0,2147123574,2147779849,2147571309,2147571382,17,3,13,35325
1346202595,5810,1029.7199707031250000,35.7577514648437500,565.9921875000000000,4.3000349998474120,56.2212905883789060,54,99,102,78,82,15547,0,0,0,0,2147122194,2147776813,2147573952,2147569810,3519,3,13,38563
1346206195,5812,1030.8699951171875000,35.8260612487793000,565.9268798828125000,4.3020648956298830,56.2105903625488300,56,98,101,79,82,15545,0,0,0,0,2147119076,2147776201,2147571556,2147570779,92,3,13,9586
1346209795,5807,1023.1799926757812000,35.5786399841308600,566.4124755859375000,4.2869911193847660,56.2548789978027340,55,99,101,79,83,15544,0,0,0,0,2147122742,2147776896,2147574363,2147572452,162,3,13,24032
1346213395,5809,1024.1600341796875000,35.7694206237793000,566.7324829101562000,4.2770538330078125,56.2243881225585940,55,98,101,77,84,15542,0,0,0,0,2147121408,2147771483,2147574692,2147570962,62,3,13,27111
1346216995,5811,1021.6099853515625000,36.1631889343261700,567.3248291015625000,4.2586650848388670,56.1700706481933600,56,100,99,79,83,15546,0,0,0,0,2147121609,2147779227,2147572644,2147570349,332,3,13,60393
1346220595,5811,1025.7099609375000000,36.7938499450683600,566.3867797851562000,4.2877860069274900,56.0674018859863300,56,99,100,77,83,15543,0,0,0,0,2147118409,2147777700,2147572946,2147570953,66,3,13,35576
1346224195,5810,1019.4600219726562000,36.2195205688476560,567.1403808593750000,4.2643909454345700,56.1609382629394500,55,98,100,78,82,15546,0,0,0,0,2147121499,2147778998,2147573284,2147570752,3371,3,13,9949
1346227795,5809,1023.0399780273438000,36.2232398986816400,567.0377807617188000,4.2675762176513670,56.1613388061523440,55,99,100,77,82,15541,0,0,0,0,2147123574,2147777627,2147572726,2147568109,128,3,13,38307
1346231395,5808,1021.1300048828125000,37.2675704956054700,567.5695800781250000,4.2510600090026855,56.0035896301269500,56,99,102,79,83,15544,0,0,0,0,2147123273,2147780425,2147573010,2147571958,313,3,13,32123
1346234995,5807,1021.8599853515625000,37.7381210327148440,567.5187988281250000,4.2526397705078125,55.9299011230468750,54,98,100,78,83,15540,0,0,0,0,2147123849,2147776402,2147572470,2147565888,153,3,13,32845
1346238595,5811,1023.6699829101562000,37.6202507019043000,567.9315795898438000,4.2398200035095215,55.9547309875488300,55,97,101,78,82,15538,0,0,0,0,2147121426,2147774902,2147574070,2147571849,129,3,13,28531
1346242195,5811,1025.1300048828125000,36.2582206726074200,567.0509033203125000,4.2671699523925780,56.1538505554199200,55,99,101,77,84,15543,0,0,0,0,2147120512,2147780827,2147574692,2147570998,2801,3,13,35397
1346245795,5810,1025.6199951171875000,35.8655509948730500,567.0977783203125000,4.2657132148742680,56.2149810791015600,55,101,101,77,82,15540,0,0,0,0,2147120740,2147776576,2147569837,2147569718,3006,3,13,54638
1346249395,5810,1022.9400024414062000,37.5523796081543000,567.4730224609375000,4.2540631294250490,55.9561195373535160,56,97,101,78,82,15540,0,0,0,0,2147119744,2147778093,2147574180,2147571099,59,3,13,54234
1346252995,5810,1024.1199951171875000,36.6857795715332000,567.1444702148438000,4.2642607688903810,56.0882606506347660,54,102,101,77,83,15543,0,0,0,0,2147122733,2147779355,2147573494,2147572086,3341,3,13,10295
1346256595,5810,1027.0100097656250000,37.2222900390625000,567.1488037109375000,4.2641301155090330,56.0099105834960940,56,99,102,77,83,15540,0,0,0,0,2147122066,2147775579,2147579885,2147571830,3467,3,13,65081
1346260195,5809,1028.5600585937500000,36.8852386474609400,567.1353759765625000,4.2645440101623535,56.0599517822265600,55,100,100,79,82,15543,0,0,0,0,2147122889,2147773046,2147571227,2147572598,15,3,12,10779
1346263795,5807,1031.1600341796875000,36.0103302001953100,567.1403198242188000,4.2643952369689940,56.1925315856933600,56,98,101,77,84,15540,0,0,0,0,2147120749,2147777499,2147575899,2147571721,3592,3,13,15576
1346267395,5808,1030.8199462890625000,35.9362716674804700,566.8994750976562000,4.2718701362609860,56.2020187377929700,56,98,101,78,84,15535,0,0,0,0,2147122697,2147779830,2147572854,2147571291,147,3,13,33573
1346268357,5810,1030.0100097656250000,36.6139984130859400,566.8806762695312000,4.2724509239196780,56.0988197326660160,55,96,101,78,84,15538,0,0,0,0,2147123611,2147780196,2147570688,2147570752,3392,3,13,25950
